Regional Weather Roundup
Issued by NWS

Home | Current Version | Previous Version | Graphics & Text | Print | Product List | Glossary On
Versions: 1 2 3 4 5 6 7 8 9 10 11 12 13 14 15 16 17 18 19 20 21 22 23 24 25 26 27 28 29 30 31 32 33 34 35 36 37 38 39 40 41 42 43 44 45 46 47 48 49 50
000
ASUS45 KBOI 050510
RWRID
WEATHER ROUNDUP FOR IDAHO
NATIONAL WEATHER SERVICE BOISE ID
1100 PM MDT MON MAY 04 2015

NOTE: "FAIR" INDICATES FEW OR NO CLOUDS BELOW 12000 FEET
WITH NO SIGNIFICANT WEATHER AND/OR OBSTRUCTIONS TO VISIBILITY

IDZ012-014-050600-
SOUTHWEST IDAHO


CITY           SKY/WX    TMP DP  RH WIND       PRES   REMARKS
BOISE          CLOUDY    75  34  22 SE22G36   29.77R
CALDWELL       CLOUDY    72  34  25 S13       29.74S
MOUNTAIN HOME  CLOUDY    71  37  28 NW5       29.79R
$$

IDZ016-017-050600-
SOUTHCENTRAL IDAHO


CITY           SKY/WX    TMP DP  RH WIND       PRES   REMARKS
BURLEY         MOCLDY    55  39  54 SW3       29.86R
JEROME         MOCLDY    58  39  49 E12       29.84S
TWIN FALLS     MOCLDY    58  36  43 SE12      29.83S
$$

IDZ019>023-050600-
SOUTHEAST IDAHO


CITY           SKY/WX    TMP DP  RH WIND       PRES   REMARKS
IDAHO FALLS    CLOUDY    62  40  44 SW6       29.91S
POCATELLO      MOCLDY    57  41  55 N12       29.90R
REXBURG        CLOUDY    61  37  41 S6        29.92S
$$

IDZ006-010-011-018-031-032-050600-
CENTRAL IDAHO MOUNTAINS


CITY           SKY/WX    TMP DP  RH WIND       PRES   REMARKS
MCCALL         MOCLDY    54  36  50 NW6       29.84S
HAILEY         MOCLDY    55  39  54 W6        29.94R
STANLEY          N/A     43  30  60 SE3       29.97S
SALMON           N/A     63  32  31 CALM      29.82R
CHALLIS        PTCLDY    54  32  43 CALM      29.88S
$$

IDZ002-004-006-007-026-050600-
NORTHERN IDAHO


CITY           SKY/WX    TMP DP  RH WIND       PRES   REMARKS
LEWISTON       MOCLDY    68  30  24 W6        29.78R
LOWELL           N/A     57  47  69 CALM      29.77R
COEUR D`ALENE  CLEAR     59  34  38 S9        29.78R
MULLAN PASS    MOCLDY    51  13  21 VRB6      29.90R
$$


USA.gov is the U.S. government's official web portal to all federal, state and local government web resources and services.